This demonstration page uses our WeatherBlox Daily Observations layout. Learn more.

38.89511, -77.03637

Hourly Observations for September 15, 2019

Temp ( °F °C ) Dew Point ( °F °C ) Humidity (%) Winds ( mph kmh ) Pressure ( in mb ) Visibility ( mi km ) Precip ( " mm )
12:52 am 00:52 Cloudy 75 23.9 69 20.6 82 82 S 6 9 30.15 1021 10 16.09344 0 0
1:52 am 01:52 Cloudy 76 24.4 69 20.6 79 79 SSW 7 11 30.15 1021 10 16.09344 0 0
2:52 am 02:52 Cloudy 75 23.9 70 21.1 84 84 S 7 11 30.15 1021 10 16.09344 0 0
3:52 am 03:52 Cloudy 75 23.9 70 21.1 84 84 Calm 30.15 1021 10 16.09344 0 0
4:52 am 04:52 Cloudy 75 23.9 70 21.1 84 84 Calm 30.15 1021 10 16.09344 0 0
5:52 am 05:52 Cloudy 76 24.4 69 20.6 79 79 NNW 8 13 30.15 1021 10 16.09344 0 0
6:04 am 06:04 Mostly Cloudy 75 23.9 69 20.6 82 82 NW 5 7 30.18 1022 10 16.09344 0 0
6:52 am 06:52 Mostly Cloudy 73 22.8 68 20 84 84 NNW 7 11 30.15 1021 10 16.09344 0 0
7:52 am 07:52 Mostly Cloudy 74 23.3 69 20.6 85 85 NNW 7 11 30.15 1021 10 16.09344 0 0
8:52 am 08:52 Mostly Cloudy 77 25 63 17.2 62 62 N 10 17 30.18 1022 10 16.09344 0 0
9:52 am 09:52 Mostly Cloudy 80 26.7 61 16.1 52 52 NNW 10 17 30.18 1022 10 16.09344 0 0
10:00 am 10:00 Mostly Cloudy 80 26.7 62 16.7 54 54 N 9 15 30.21 1023 10 16.09344 0 0
10:52 am 10:52 Mostly Cloudy 82 27.8 59 15 46 46 N 8 13 30.18 1022 10 16.09344 0 0
11:52 am 11:52 Partly Cloudy 83 28.3 59 15 44 44 N 9 15 30.18 1022 10 16.09344 0 0
12:52 pm 12:52 Partly Cloudy 85 29.4 57 13.9 39 39 NNW 5 7 30.15 1021 10 16.09344 0 0
1:52 pm 13:52 Mostly Sunny 88 31.1 56 13.3 34 34 VRB 3 6 30.12 1020 10 16.09344 0 0
2:52 pm 14:52 Mostly Sunny 88 31.1 55 12.8 33 33 N 10 17 30.09 1019 10 16.09344 0 0
3:52 pm 15:52 Mostly Sunny 88 31.1 52 11.1 29 29 W 6 9 30.09 1019 10 16.09344 0 0
4:52 pm 16:52 Mostly Sunny 89 31.7 51 10.6 27 27 NNW 7 11 30.09 1019 10 16.09344 0 0
5:52 pm 17:52 Mostly Sunny 87 30.6 46 7.8 24 24 NW 6 9 30.09 1019 10 16.09344 0 0
6:52 pm 18:52 Mostly Sunny 84 28.9 52 11.1 33 33 N 6 9 30.09 1019 10 16.09344 0 0
7:52 pm 19:52 Mostly Clear 80 26.7 57 13.9 45 45 N 5 7 30.06 1018 10 16.09344 0 0
8:52 pm 20:52 Clear 77 25 63 17.2 62 62 ESE 6 9 30.09 1019 10 16.09344 0 0
9:52 pm 21:52 Clear 76 24.4 62 16.7 62 62 Calm 30.09 1019 10 16.09344 0 0
10:52 pm 22:52 Clear 75 23.9 63 17.2 66 66 Calm 30.09 1019 10 16.09344 0 0
11:52 pm 23:52 Clear 73 22.8 62 16.7 69 69 WSW 3 6 30.09 1019 10 16.09344 0 0

Powered by AerisWeather